Location: Chiroubles
(46.1812°N, 4.6660°E)
Time: 21:32:47
(UTC+00:00)

Courier 1B - Visible Passes

Search period start: 07 May 2021 00:00
Search period end: 17 May 2021 00:00
Orbit: 962 x 1209 km, 28.3° (Epoch: 06 May)

Date Brightness Start Highest point End Pass type
(mag) Time Alt. Az. Time Alt. Az. Time Alt. Az.
10 May 9.9 03:20:39 10° S 03:22:37 11° SSE 03:24:35 10° SE visible
12 May 9.6 03:24:10 10° SSW 03:28:18 15° SSE 03:32:27 10° SE visible
13 May 9.6 02:31:40 10° S 02:34:44 13° SSE 02:37:50 10° SE visible
14 May 9.4 03:29:06 10° SSW 03:34:01 18° S 03:39:00 10° SE visible
15 May 9.4 02:37:09 13° SSW 02:40:26 16° SSE 02:44:55 10° SE visible
16 May 9.4 01:46:28 14° SSE 01:46:52 14° SSE 01:50:31 10° SE visible
